| time (UTC) | temp F | wind direction | speed knots | gust knots | rain 1hr in | rain 24hr in | rain mn in | humidity % | barometer mb |
| 20260502164237 | 60 | 90 | 0.9 | 2.6 | 0.00 | 0.00 | 0.00 | 23 | 1023.8 |
| 20260502163217 | 60 | 23 | 1.7 | 7.0 | 0.00 | 0.00 | 0.00 | 22 | 1023.7 |
| 20260502162217 | 60 | 68 | 1.7 | 3.5 | 0.00 | 0.00 | 0.00 | 24 | 1023.8 |
| 20260502161217 | 60 | 0.0 | 0.9 | 0.00 | 0.00 | 0.00 | 21 | 1023.7 | |
| 20260502160217 | 60 | 90 | 0.9 | 2.6 | 0.00 | 0.00 | 0.00 | 20 | 1024.2 |
| 20260502152217 | 55 | 45 | 0.9 | 1.7 | 0.00 | 0.00 | 0.00 | 23 | 1023.3 |
| 20260502151217 | 53 | 0.0 | 0.0 | 0.00 | 0.00 | 0.00 | 22 | 1022.8 | |
| 20260502150217 | 52 | 0.0 | 1.7 | 0.00 | 0.00 | 0.00 | 22 | 1022.6 | |
| 20260502130220 | 33 | 0.0 | 0.0 | 0.00 | 0.00 | 0.00 | 46 | 1018.1 | |
| 20260502123219 | 33 | 0.0 | 0.0 | 0.00 | 0.00 | 0.00 | 46 | 1017.6 | |
| 20260502122219 | 33 | 0.0 | 0.0 | 0.00 | 0.00 | 0.00 | 46 | 1017.3 | |
| 20260502121218 | 33 | 0.0 | 0.0 | 0.00 | 0.00 | 0.00 | 46 | 1017.3 | |
| 20260502120218 | 33 | 0.0 | 0.0 | 0.00 | 0.00 | 0.00 | 46 | 1017.7 | |
| 20260502115239 | 33 | 0.0 | 0.0 | 0.00 | 0.00 | 0.00 | 46 | 1017.7 | |
| 20260502114218 | 34 | 0.0 | 0.0 | 0.00 | 0.00 | 0.00 | 46 | 1017.7 | |
| 20260502113239 | 35 | 0.0 | 0.0 | 0.00 | 0.00 | 0.00 | 45 | 1018.6 | |
| 20260502112218 | 35 | 0.0 | 0.0 | 0.00 | 0.00 | 0.00 | 46 | 1018.7 | |
| 20260502111239 | 36 | 0.0 | 0.0 | 0.00 | 0.00 | 0.00 | 44 | 1018.7 | |
| 20260502110219 | 37 | 0.0 | 0.0 | 0.00 | 0.00 | 0.00 | 43 | 1019.3 | |
| 20260502105219 | 38 | 0.0 | 0.0 | 0.00 | 0.00 | 0.00 | 42 | 1019.2 | |
| 20260502104240 | 40 | 0.0 | 0.0 | 0.00 | 0.00 | 0.00 | 40 | 1019.6 | |
| 20260502103218 | 41 | 0.0 | 0.0 | 0.00 | 0.00 | 0.00 | 38 | 1020.1 | |
| 20260502102218 | 41 | 0.0 | 0.0 | 0.00 | 0.00 | 0.00 | 38 | 1020.1 | |
| 20260502101218 | 42 | 0.0 | 0.0 | 0.00 | 0.00 | 0.00 | 36 | 1020.1 | |
| 20260502100218 | 43 | 0.0 | 0.0 | 0.00 | 0.00 | 0.00 | 35 | 1020.4 | |
| 20260502091218 | 42 | 293 | 1.7 | 2.6 | 0.00 | 0.00 | 0.00 | 33 | 1019.5 |
| 20260502090218 | 41 | 0.0 | 0.0 | 0.00 | 0.00 | 0.00 | 35 | 1019.5 | |
| 20260502071218 | 45 | 0.0 | 0.0 | 0.00 | 0.00 | 0.00 | 37 | 1021.4 | |
| 20260502070327 | 46 | 0.0 | 0.0 | 0.00 | 0.00 | 0.00 | 36 | 1021.3 | |
| 20260502065217 | 47 | 0.0 | 0.0 | 0.00 | 0.00 | 0.00 | 35 | 1021.4 | |
| 20260502064217 | 48 | 0.0 | 0.0 | 0.00 | 0.00 | 0.00 | 34 | 1021.7 | |
| 20260502063217 | 48 | 0.0 | 0.0 | 0.00 | 0.00 | 0.00 | 34 | 1021.2 | |
| 20260502062217 | 48 | 338 | 0.9 | 1.7 | 0.00 | 0.00 | 0.00 | 33 | 1021.1 |
| 20260502061217 | 48 | 0.0 | 0.0 | 0.00 | 0.00 | 0.00 | 33 | 1021.0 | |
| 20260502060217 | 48 | 0.0 | 0.0 | 0.00 | 0.00 | 0.00 | 34 | 1021.4 | |
| 20260502055218 | 47 | 338 | 1.7 | 4.3 | 0.00 | 0.00 | 0.00 | 35 | 1020.9 |
| 20260502054217 | 47 | 315 | 0.9 | 1.7 | 0.00 | 0.00 | 0.00 | 36 | 1020.9 |
| 20260502053217 | 47 | 315 | 1.7 | 2.6 | 0.00 | 0.00 | 0.00 | 37 | 1020.9 |
| 20260502052219 | 47 | 315 | 0.9 | 1.7 | 0.00 | 0.00 | 0.00 | 37 | 1020.8 |
| 20260502051217 | 47 | 0.0 | 0.0 | 0.00 | 0.00 | 0.00 | 37 | 1020.6 | |
| 20260502050217 | 47 | 0.0 | 0.0 | 0.00 | 0.00 | 0.00 | 37 | 1019.6 | |
| 20260502045217 | 48 | 0.0 | 0.0 | 0.00 | 0.00 | 0.00 | 36 | 1020.0 | |
| 20260502044217 | 48 | 0.0 | 0.0 | 0.00 | 0.00 | 0.00 | 35 | 1019.9 | |
| 20260502043238 | 49 | 0.0 | 0.0 | 0.00 | 0.00 | 0.00 | 35 | 1019.7 | |
| 20260502042237 | 49 | 0.0 | 0.0 | 0.00 | 0.00 | 0.00 | 34 | 1019.7 | |
| 20260502041217 | 49 | 0.0 | 0.0 | 0.00 | 0.00 | 0.00 | 35 | 1019.7 | |
| 20260502040217 | 49 | 0.0 | 0.9 | 0.00 | 0.00 | 0.00 | 35 | 1019.0 | |
| 20260502035217 | 50 | 338 | 1.7 | 2.6 | 0.00 | 0.00 | 0.00 | 36 | 1018.9 |
| 20260502034217 | 50 | 338 | 0.9 | 1.7 | 0.00 | 0.00 | 0.00 | 36 | 1018.8 |
| 20260502033217 | 50 | 315 | 3.5 | 7.0 | 0.00 | 0.00 | 0.00 | 36 | 1018.7 |
| 20260502032219 | 51 | 338 | 1.7 | 2.6 | 0.00 | 0.00 | 0.00 | 35 | 1018.6 |
| 20260502031217 | 51 | 315 | 1.7 | 2.6 | 0.00 | 0.00 | 0.00 | 35 | 1018.4 |
| 20260502030217 | 51 | 338 | 2.6 | 4.3 | 0.00 | 0.00 | 0.00 | 34 | 1017.7 |
| 20260502025217 | 52 | 338 | 4.3 | 5.2 | 0.00 | 0.00 | 0.00 | 33 | 1017.6 |
| 20260502024217 | 52 | 338 | 2.6 | 6.1 | 0.00 | 0.00 | 0.00 | 33 | 1017.9 |
| 20260502023217 | 52 | 0.0 | 0.0 | 0.00 | 0.00 | 0.00 | 33 | 1016.9 | |
| 20260502022217 | 53 | 0 | 1.7 | 2.6 | 0.00 | 0.00 | 0.00 | 32 | 1016.6 |
| 20260502021217 | 53 | 23 | 0.9 | 2.6 | 0.00 | 0.00 | 0.00 | 31 | 1016.3 |
| 20260502020217 | 54 | 0 | 5.2 | 10.4 | 0.00 | 0.00 | 0.00 | 30 | 1016.2 |
| 20260502015217 | 54 | 23 | 3.5 | 9.6 | 0.00 | 0.00 | 0.00 | 29 | 1016.2 |
| 20260502014237 | 55 | 23 | 3.5 | 5.2 | 0.00 | 0.00 | 0.00 | 29 | 1016.3 |
| 20260502013218 | 55 | 23 | 3.5 | 7.0 | 0.00 | 0.00 | 0.00 | 29 | 1016.0 |
| 20260502012216 | 56 | 0.0 | 0.9 | 0.00 | 0.00 | 0.00 | 28 | 1016.0 | |
| 20260502011217 | 56 | 23 | 4.3 | 7.0 | 0.00 | 0.00 | 0.00 | 28 | 1015.7 |
| 20260502010238 | 56 | 315 | 4.3 | 6.1 | 0.00 | 0.00 | 0.00 | 28 | 1015.5 |
| 20260502005238 | 56 | 23 | 2.6 | 4.3 | 0.00 | 0.00 | 0.00 | 27 | 1015.4 |
| 20260502004216 | 57 | 338 | 3.5 | 7.0 | 0.00 | 0.00 | 0.00 | 26 | 1015.3 |
| 20260502003219 | 58 | 315 | 5.2 | 8.7 | 0.00 | 0.00 | 0.00 | 25 | 1015.6 |
| 20260502002219 | 58 | 0.0 | 0.0 | 0.00 | 0.00 | 0.00 | 24 | 1015.4 | |
| 20260502001218 | 58 | 0 | 2.6 | 6.1 | 0.00 | 0.00 | 0.00 | 24 | 1015.3 |
| 20260502000219 | 59 | 0.0 | 0.9 | 0.00 | 0.00 | 0.00 | 24 | 1014.7 | |
| 20260501235219 | 59 | 0.0 | 0.0 | 0.00 | 0.00 | 0.00 | 25 | 1014.6 | |
| 20260501234218 | 59 | 90 | 0.9 | 3.5 | 0.00 | 0.00 | 0.00 | 25 | 1014.5 |
| 20260501233219 | 59 | 68 | 0.9 | 2.6 | 0.00 | 0.00 | 0.00 | 25 | 1014.0 |
| 20260501232219 | 60 | 23 | 3.5 | 7.8 | 0.00 | 0.00 | 0.00 | 25 | 1013.9 |
| 20260501231218 | 60 | 158 | 3.5 | 6.1 | 0.00 | 0.00 | 0.00 | 24 | 1014.1 |
| 20260501230218 | 61 | 0.0 | 0.9 | 0.00 | 0.00 | 0.00 | 23 | 1013.4 | |
| 20260501225218 | 61 | 0.0 | 0.0 | 0.00 | 0.00 | 0.00 | 23 | 1013.4 | |
| 20260501224239 | 61 | 0.0 | 0.9 | 0.00 | 0.00 | 0.00 | 23 | 1013.4 | |
| 20260501223300 | 61 | 23 | 2.6 | 6.1 | 0.00 | 0.00 | 0.00 | 23 | 1013.9 |
| 20260501222218 | 61 | 0.0 | 0.9 | 0.00 | 0.00 | 0.00 | 24 | 1014.0 | |
| 20260501221218 | 61 | 90 | 0.9 | 1.7 | 0.00 | 0.00 | 0.00 | 23 | 1014.1 |
| 20260501220218 | 61 | 0.0 | 0.0 | 0.00 | 0.00 | 0.00 | 24 | 1014.5 | |
| 20260501215221 | 62 | 0.0 | 0.0 | 0.00 | 0.00 | 0.00 | 24 | 1014.8 | |
| 20260501214218 | 61 | 180 | 1.7 | 2.6 | 0.00 | 0.00 | 0.00 | 22 | 1015.0 |
| 20260501213220 | 61 | 0.0 | 0.0 | 0.00 | 0.00 | 0.00 | 24 | 1015.5 | |
| 20260501212218 | 60 | 315 | 2.6 | 2.6 | 0.00 | 0.00 | 0.00 | 25 | 1015.7 |
| 20260501211218 | 59 | 0.0 | 1.7 | 0.00 | 0.00 | 0.00 | 25 | 1015.4 | |
| 20260501210238 | 59 | 90 | 0.9 | 2.6 | 0.00 | 0.00 | 0.00 | 25 | 1016.0 |
| 20260501205218 | 59 | 23 | 3.5 | 5.2 | 0.00 | 0.00 | 0.00 | 25 | 1016.0 |
| 20260501204219 | 60 | 315 | 2.6 | 5.2 | 0.00 | 0.00 | 0.00 | 24 | 1016.0 |
| 20260501203218 | 60 | 315 | 2.6 | 4.3 | 0.00 | 0.00 | 0.00 | 25 | 1016.1 |
| 20260501202218 | 59 | 0.0 | 0.9 | 0.00 | 0.00 | 0.00 | 24 | 1016.1 | |
| 20260501201218 | 59 | 0 | 1.7 | 2.6 | 0.00 | 0.00 | 0.00 | 24 | 1016.0 |
| 20260501200239 | 59 | 338 | 4.3 | 7.0 | 0.00 | 0.00 | 0.00 | 26 | 1016.1 |
| 20260501195219 | 58 | 338 | 3.5 | 4.3 | 0.00 | 0.00 | 0.00 | 26 | 1016.1 |
| 20260501194219 | 58 | 293 | 4.3 | 7.0 | 0.00 | 0.00 | 0.00 | 25 | 1016.1 |
| 20260501193218 | 59 | 293 | 5.2 | 8.7 | 0.00 | 0.00 | 0.00 | 25 | 1016.5 |
| 20260501192218 | 60 | 315 | 4.3 | 7.0 | 0.00 | 0.00 | 0.00 | 22 | 1017.0 |
| 20260501191218 | 61 | 0 | 0.9 | 2.6 | 0.00 | 0.00 | 0.00 | 23 | 1017.1 |
| 20260501190218 | 61 | 23 | 2.6 | 4.3 | 0.00 | 0.00 | 0.00 | 22 | 1017.9 |
| 20260501185218 | 61 | 338 | 5.2 | 8.7 | 0.00 | 0.00 | 0.00 | 23 | 1018.1 |
| 20260501184219 | 60 | 338 | 2.6 | 3.5 | 0.00 | 0.00 | 0.00 | 22 | 1017.9 |
| 20260501183218 | 60 | 338 | 5.2 | 8.7 | 0.00 | 0.00 | 0.00 | 22 | 1017.9 |
| 20260501182218 | 61 | 225 | 2.6 | 3.5 | 0.00 | 0.00 | 0.00 | 21 | 1018.3 |
| 20260501181238 | 60 | 90 | 1.7 | 2.6 | 0.00 | 0.00 | 0.00 | 23 | 1017.9 |
| 20260501180218 | 59 | 338 | 0.9 | 3.5 | 0.00 | 0.00 | 0.00 | 24 | 1018.0 |
| 20260501175218 | 60 | 338 | 4.3 | 7.0 | 0.00 | 0.00 | 0.00 | 22 | 1018.1 |
| 20260501174238 | 60 | 248 | 2.6 | 3.5 | 0.00 | 0.00 | 0.00 | 22 | 1018.0 |
| 20260501173220 | 60 | 293 | 4.3 | 8.7 | 0.00 | 0.00 | 0.00 | 22 | 1018.4 |
| 20260501172218 | 60 | 90 | 2.6 | 4.3 | 0.00 | 0.00 | 0.00 | 23 | 1018.6 |
| 20260501171218 | 59 | 90 | 0.9 | 3.5 | 0.00 | 0.00 | 0.00 | 24 | 1018.2 |
| 20260501170218 | 59 | 113 | 1.7 | 7.0 | 0.00 | 0.00 | 0.00 | 24 | 1018.3 |
| 20260501165218 | 58 | 23 | 1.7 | 4.3 | 0.00 | 0.00 | 0.00 | 25 | 1018.3 |